This is the latest recevied weather packets stored in our database for station/object KD7JB. If no packets are shown the sender has not sent any weather packets the latest 1 day(s).
| Time | Temp. | Humidity | Pressure | Rain* | Wind** | Luminosity | Snow |
|---|---|---|---|---|---|---|---|
| 1777999045 | 15.56° C | 50% | 1175.4 hPa | 0 mm | 0.89 m/s, 353° | 510 W/m² | - |
| 1777998743 | 15.56° C | 49% | 1175.3 hPa | 0 mm | 2.68 m/s, 3° | 498 W/m² | - |
| 1777998440 | 15.56° C | 51% | 1175.4 hPa | 0 mm | 1.79 m/s, 1° | 485 W/m² | - |
| 1777998137 | 15.56° C | 49% | 1175.4 hPa | 0 mm | 1.34 m/s, 8° | 471 W/m² | - |
| 1777997834 | 16.11° C | 49% | 1175.4 hPa | 0 mm | 1.79 m/s, 355° | 459 W/m² | - |
| 1777997532 | 15.56° C | 47% | 1175.4 hPa | 0 mm | 0.45 m/s, 61° | 446 W/m² | - |
| 1777997229 | 15.56° C | 47% | 1175.4 hPa | 0 mm | 1.79 m/s, 73° | 433 W/m² | - |
| 1777996927 | 15.56° C | 46% | 1175.2 hPa | 0 mm | 1.79 m/s, 4° | 422 W/m² | - |
| 1777996623 | 15.56° C | 46% | 1175.4 hPa | 0 mm | 2.24 m/s, 39° | 408 W/m² | - |
| 1777996319 | 15.56° C | 46% | 1175.5 hPa | 0 mm | 0.89 m/s, 32° | 396 W/m² | - |
| 1777996015 | 15° C | 47% | 1175.3 hPa | 0 mm | 1.79 m/s, 18° | 382 W/m² | - |
| 1777995712 | 16.11° C | 45% | 1175.4 hPa | 0 mm | 1.34 m/s, 69° | 367 W/m² | - |
| 1777995409 | 16.11° C | 48% | 1175.3 hPa | 0 mm | 0.45 m/s, 59° | 357 W/m² | - |
| 1777995106 | 15.56° C | 49% | 1175.4 hPa | 0 mm | 0.89 m/s, 72° | 343 W/m² | - |
| 1777994803 | 15.56° C | 48% | 1175.2 hPa | 0 mm | 1.34 m/s, 135° | 304 W/m² | - |
| 1777994498 | 15.56° C | 49% | 1175.3 hPa | 0 mm | 0.89 m/s, 88° | 313 W/m² | - |
| 1777994194 | 15.56° C | 47% | 1175.3 hPa | 0 mm | 0.89 m/s, 73° | 300 W/m² | - |
| 1777993891 | 15.56° C | 48% | 1175.3 hPa | 0 mm | 1.79 m/s, 109° | 282 W/m² | - |
| 1777993587 | 15.56° C | 49% | 1175.1 hPa | 0 mm | 0.45 m/s, 86° | 268 W/m² | - |
| 1777993284 | 15.56° C | 49% | 1175.3 hPa | 0 mm | 0 m/s | 254 W/m² | - |
| 1777992980 | 15° C | 50% | 1175.1 hPa | 0 mm | 0.89 m/s, 79° | 238 W/m² | - |
| 1777992679 | 14.44° C | 50% | 1174.8 hPa | 0 mm | 0.45 m/s, 79° | 224 W/m² | - |
| 1777992376 | 14.44° C | 49% | 1174.9 hPa | 0 mm | 1.79 m/s, 110° | 210 W/m² | - |
| 1777992073 | 15° C | 51% | 1175.1 hPa | 0 mm | 0.89 m/s, 94° | 194 W/m² | - |
| 1777991771 | 14.44° C | 51% | 1175.1 hPa | 0 mm | 0.89 m/s, 90° | 179 W/m² | - |
* Rain latest hour (hover to see other rain measurements)
** Current wind speed in m/s (hover to see current wind gust speed)